Location: Jetmore Oil Field
(38.1181°N, 99.9337°W)
Time: 09:11:11
(UTC+00:00)

STARLINK-2751 - Visible Passes

Search period start: 28 October 2021 00:00
Search period end: 07 November 2021 00:00
Orbit: 546 x 548 km, 53.0° (Epoch: 27 October)

Date Brightness Start Highest point End Pass type
(mag) Time Alt. Az. Time Alt. Az. Time Alt. Az.
28 Oct 6.1 11:16:27 10° N 11:16:35 10° N 11:17:22 10° N visible
29 Oct 6.2 11:10:33 10° N 11:10:36 10° N 11:10:48 10° N visible
31 Oct 6.3 10:58:59 10° N 10:58:59 10° N 10:59:15 10° N visible
31 Oct 5.7 12:36:43 10° NNW 12:39:49 20° NNE 12:42:55 10° ENE visible
01 Nov 6.3 10:53:20 11° N 10:53:20 11° N 10:54:04 10° NNE visible
01 Nov 5.5 12:30:34 10° NNW 12:33:58 24° NNE 12:37:22 10° E visible
02 Nov 6.3 10:47:48 11° NNE 10:47:48 11° NNE 10:48:54 10° NNE visible
02 Nov 5.2 12:24:32 10° NNW 12:28:12 29° NNE 12:31:50 10° E visible
03 Nov 6.3 10:42:23 12° NNE 10:42:23 12° NNE 10:43:45 10° NE visible
03 Nov 4.8 12:18:36 10° NW 12:22:28 37° NE 12:26:19 10° ESE visible
04 Nov 6.3 10:37:06 14° NNE 10:37:06 14° NNE 10:38:39 10° NE visible
04 Nov 4.4 12:12:46 10° NW 12:16:47 49° NE 12:20:47 10° ESE visible
05 Nov 6.3 10:31:58 15° NE 10:31:58 15° NE 10:33:35 10° ENE visible
05 Nov 3.9 12:07:37 14° NW 12:11:10 66° NE 12:15:16 10° ESE visible
06 Nov 6.3 10:26:58 16° NE 10:26:58 16° NE 10:28:32 10° ENE visible
06 Nov 3.6 12:02:38 19° NW 12:05:35 90° W 12:09:43 10° SE visible
